Temp
49 42 36 44 48 49 47 45 42 47 50 46 45 47 52 57 55 53 53 53 56 55 57 55 54 52 50 50 51 51 51 50 48 46 45 45 44 47 52 52 52 54 51 52
44 39 48 51 51 49 47 41 40 47 48 47 45 47 54 55 55 53 53 52 53 53 53 52 50 50 50 49 50 50 50 50 48 47 47 48 46 48 51 51 51 52 51 54
41 48 53 51 48 48 44 40 37 43 46 47 43 39 45 52 52 52 51 51 51 51 50 49 50 47 47 47 47 49 49 49 48 48 47 48 49 54 53 50 51 51 52 53
44 51 50 47 46 48 40 48 47 45 40 31 42 28 33 47 49 50 52 50 49 49 49 49 48 46 46 46 47 48 49 48 49 48 47 47 49 50 52 50 51 51 53 54
42 43 44 44 46 50 44 47 46 44 38 35 33 27 37 44 47 49 49 49 48 48 48 46 46 48 47 47 46 46 47 48 47 48 48 50 50 50 50 50 50 51 52 55
44 47 45 46 45 47 48 45 44 40 36 23 31 32 33 38 46 45 47 48 48 47 46 47 47 47 45 45 46 46 47 47 47 47 47 47 47 49 48 49 49 51 52 52
41 41 43 47 42 45 43 38 25 23 21 26 34 31 37 45 51 51 49 46 46 46 44 44 44 43 44 44 45 46 46 46 46 46 46 47 46 49 49 50 51 52 53 54
33 29 41 46 44 40 39 40 29 24 25 29 32 29 39 48 48 49 50 47 45 44 45 44 43 43 44 44 45 46 46 46 46 46 46 48 46 47 50 51 51 52 52 53
36 37 43 46 46 47 39 34 42 34 23 25 33 39 49 45 45 44 45 45 43 43 43 43 43 44 44 44 44 45 46 46 46 45 45 49 46 48 47 51 51 51 52 53
46 34 40 42 46 45 41 43 34 29 23 22 30 33 41 45 46 47 44 43 43 44 44 44 44 44 44 44 45 45 46 45 45 45 45 46 47 45 49 50 50 50 51 53
45 42 33 39 37 37 38 35 38 38 33 30 28 34 45 47 48 49 47 47 45 45 44 45 45 45 45 45 44 44 45 45 45 45 45 45 48 48 48 48 49 50 50 51
46 38 27 33 41 43 41 39 39 32 31 31 32 33 48 47 48 49 49 50 47 46 45 45 45 45 44 43 43 44 44 45 45 45 45 45 48 49 46 49 48 50 50 50
43 32 28 30 35 37 36 40 42 41 36 32 29 35 48 47 48 50 48 50 49 47 45 45 44 44 44 43 43 44 44 45 46 45 44 44 44 48 47 45 48 48 49 48
45 34 33 29 33 35 31 34 40 42 29 32 38 38 44 49 48 49 49 48 47 47 47 44 43 43 43 44 43 43 44 46 46 45 44 42 43 46 47 46 44 45 47 47
39 29 31 36 38 37 34 34 35 36 41 35 38 39 45 46 44 45 49 49 47 48 47 46 45 43 43 43 43 44 44 45 46 45 43 43 43 45 45 45 44 45 46 46
36 30 31 26 36 34 32 36 36 37 39 40 41 40 35 38 41 40 43 45 45 48 49 49 48 46 45 46 45 46 46 45 45 44 44 43 41 41 43 43 43 43 44 44
33 31 29 27 32 31 28 32 36 38 35 32 33 34 33 32 35 37 35 42 42 42 45 48 48 48 48 47 47 45 45 44 44 43 42 42 41 40 41 42 42 42 43 43
31 32 31 28 28 23 32 32 37 33 27 30 30 31 32 32 34 36 35 35 35 37 37 39 43 46 47 45 44 45 44 44 44 43 42 41 40 39 37 38 41 42 42 43
33 32 29 27 24 31 31 27 27 28 23 28 28 29 30 33 36 35 34 36 34 35 35 36 39 42 43 43 44 43 42 42 42 42 42 40 39 38 35 36 38 41 41 40
33 33 30 29 25 19 23 28 31 30 20 28 29 28 28 32 29 28 32 35 34 34 34 33 36 38 37 36 39 41 41 41 40 41 41 38 37 37 36 36 37 37 38 38
20 27 25 26 26 20 26 29 32 23 19 27 28 28 28 26 28 31 33 33 34 33 32 32 33 33 34 34 35 35 37 38 40 38 37 36 36 36 37 35 35 35 36 35
20 17 18 19 19 16 28 29 21 25 28 28 28 29 29 30 30 30 30 31 31 30 30 30 29 30 32 31 31 31 31 33 34 36 36 35 35 35 35 34 33 34 35 35
13 19 18 21 21 27 29 27 29 30 28 29 28 30 29 28 29 29 28 29 28 29 29 29 28 28 29 29 29 27 29 30 31 32 33 33 32 33 34 34 33 34 34 35
19 19 18 22 26 24 27 29 30 31 29 29 29 27 27 25 26 27 27 27 26 26 26 27 26 25 26 27 28 27 28 28 28 29 32 31 32 32 32 33 34 35 34 34
21 22 19 21 27 27 25 26 28 29 29 27 26 25 24 23 24 25 24 24 24 25 25 24 24 24 24 25 26 26 25 25 25 27 30 32 31 31 32 33 34 35 37 37
24 23 16 15 22 23 26 25 25 23 23 22 20 19 21 21 21 21 20 21 21 20 21 21 20 19 20 22 23 23 23 23 23 25 27 29 32 33 31 32 34 36 37 37
MSLP
1012.72 1012.70 1012.48 1011.96 1011.55 1011.04 1011.16 1011.63 1011.65 1011.28 1011.17 1011.72 1011.03 1009.91 1008.46 1007.65 1007.13 1006.77 1006.58 1006.90 1007.06 1007.42 1007.81 1008.79 1009.70 1010.45 1011.16 1011.88 1012.51 1012.99 1013.44 1013.73 1014.01 1014.14 1014.30 1014.09 1013.70 1013.37 1012.95 1012.86 1012.53 1012.63 1013.03 1012.92
1012.91 1012.16 1011.42 1011.40 1011.22 1011.44 1011.37 1011.73 1011.69 1011.48 1011.58 1011.81 1010.96 1009.87 1007.98 1007.03 1006.36 1006.02 1006.08 1006.51 1006.62 1007.27 1008.39 1009.47 1010.08 1010.57 1011.07 1011.85 1012.54 1013.12 1013.47 1013.80 1014.02 1014.14 1014.19 1013.74 1013.45 1013.27 1013.01 1012.76 1012.67 1012.68 1012.95 1012.91
1012.29 1011.19 1010.32 1010.97 1010.88 1011.13 1011.43 1011.70 1011.87 1012.02 1012.02 1011.85 1011.52 1010.06 1008.50 1006.75 1006.11 1005.92 1006.11 1006.47 1006.80 1007.15 1008.28 1009.63 1010.30 1010.83 1011.42 1012.03 1012.60 1013.15 1013.58 1013.83 1013.96 1014.08 1014.03 1013.61 1013.21 1013.05 1013.06 1012.97 1012.83 1012.83 1012.87 1012.87
1012.16 1010.92 1010.57 1010.81 1010.99 1011.12 1011.68 1011.23 1011.53 1012.18 1013.01 1013.17 1012.37 1012.04 1009.83 1007.26 1006.44 1006.23 1006.27 1006.78 1007.39 1007.93 1008.81 1009.55 1010.29 1011.01 1011.47 1012.04 1012.54 1013.07 1013.47 1013.70 1013.94 1014.05 1014.01 1013.70 1013.23 1013.28 1013.26 1013.07 1012.86 1012.86 1012.86 1012.86
1011.21 1010.77 1010.67 1011.04 1011.04 1011.11 1011.44 1011.30 1011.90 1012.63 1013.54 1013.90 1013.41 1013.73 1009.38 1007.94 1006.61 1006.22 1006.39 1007.07 1007.71 1008.40 1008.96 1009.72 1010.35 1010.83 1011.47 1011.97 1012.49 1013.09 1013.40 1013.66 1013.87 1013.94 1013.89 1013.72 1013.18 1013.26 1013.26 1013.03 1012.85 1012.91 1013.03 1012.91
1011.16 1010.90 1010.96 1011.03 1011.38 1011.32 1011.71 1012.13 1012.87 1013.58 1014.39 1014.75 1013.27 1012.92 1010.40 1008.29 1006.45 1006.28 1006.62 1007.34 1008.01 1008.59 1009.21 1009.93 1010.46 1011.03 1011.71 1012.04 1012.57 1013.02 1013.28 1013.58 1013.72 1013.82 1013.84 1013.77 1013.27 1013.25 1013.30 1013.23 1013.02 1012.99 1013.22 1013.17
1011.41 1011.31 1011.37 1011.20 1011.79 1012.09 1012.10 1012.83 1014.28 1015.00 1015.43 1014.23 1013.12 1012.84 1009.31 1006.84 1005.90 1005.78 1006.37 1007.33 1008.14 1008.83 1009.42 1010.03 1010.60 1011.24 1011.72 1012.17 1012.65 1012.92 1013.10 1013.45 1013.59 1013.70 1013.71 1013.73 1013.53 1013.24 1013.50 1013.44 1013.23 1013.01 1013.18 1013.20
1011.11 1011.75 1011.22 1011.07 1011.30 1011.68 1012.31 1012.60 1013.59 1014.09 1014.77 1013.96 1013.27 1011.32 1007.52 1005.51 1005.07 1005.27 1005.84 1006.90 1008.02 1008.89 1009.45 1009.92 1010.48 1011.01 1011.50 1012.11 1012.52 1012.68 1012.90 1013.22 1013.39 1013.52 1013.65 1013.61 1013.64 1013.31 1013.40 1013.59 1013.53 1013.47 1013.23 1013.19
1010.40 1010.75 1010.75 1010.92 1011.04 1011.13 1012.12 1012.23 1012.34 1013.19 1014.39 1013.64 1011.56 1008.99 1006.32 1005.24 1005.40 1005.81 1006.49 1007.29 1008.22 1008.85 1009.52 1009.95 1010.51 1010.82 1011.36 1011.95 1012.27 1012.44 1012.74 1013.03 1013.20 1013.41 1013.53 1013.54 1013.64 1013.46 1013.46 1013.55 1013.62 1013.63 1013.54 1013.31
1009.66 1010.52 1011.27 1011.47 1011.21 1011.14 1011.39 1011.73 1012.42 1013.01 1013.53 1012.48 1010.26 1008.77 1006.39 1004.99 1005.14 1005.72 1006.63 1007.11 1007.90 1008.54 1009.33 1009.80 1010.27 1010.73 1011.25 1011.61 1011.88 1012.21 1012.50 1012.73 1012.93 1013.17 1013.37 1013.47 1013.55 1013.53 1013.34 1013.46 1013.69 1013.66 1013.63 1013.58
1009.88 1010.31 1012.17 1011.80 1011.30 1010.98 1011.65 1011.67 1011.66 1011.51 1011.57 1010.93 1010.01 1007.53 1005.34 1004.67 1004.59 1005.14 1005.74 1006.63 1007.51 1008.16 1009.00 1009.44 1009.93 1010.34 1010.83 1011.18 1011.51 1011.78 1012.14 1012.40 1012.66 1012.84 1013.07 1013.34 1013.38 1013.51 1013.40 1013.41 1013.67 1013.73 1013.60 1013.69
1010.33 1011.75 1012.22 1011.74 1011.16 1010.99 1010.90 1010.94 1010.87 1010.91 1010.95 1010.30 1009.48 1007.27 1005.42 1005.08 1004.99 1005.13 1005.55 1006.16 1006.89 1007.72 1008.47 1009.08 1009.63 1010.07 1010.51 1010.87 1011.22 1011.42 1011.64 1011.96 1012.18 1012.43 1012.68 1013.06 1013.10 1013.31 1013.49 1013.37 1013.50 1013.67 1013.71 1013.70
1011.18 1012.21 1012.39 1012.30 1012.06 1011.45 1011.14 1010.79 1010.43 1010.37 1010.41 1009.52 1009.22 1007.30 1005.84 1005.69 1005.59 1005.81 1006.05 1006.19 1006.52 1007.34 1008.13 1008.67 1009.32 1009.78 1010.13 1010.55 1010.93 1011.10 1011.29 1011.52 1011.79 1012.03 1012.36 1012.70 1012.87 1012.91 1013.20 1013.29 1013.38 1013.45 1013.68 1013.80
1011.73 1012.04 1011.76 1011.30 1010.89 1010.82 1011.17 1010.52 1010.29 1010.44 1010.31 1009.14 1007.86 1007.76 1006.88 1007.16 1007.09 1006.76 1006.62 1006.55 1006.87 1007.40 1008.03 1008.53 1009.13 1009.64 1009.95 1010.23 1010.54 1010.79 1010.94 1011.06 1011.34 1011.71 1011.96 1012.28 1012.45 1012.48 1012.68 1013.03 1013.22 1013.36 1013.45 1013.72
1012.75 1012.78 1012.28 1011.54 1011.34 1010.99 1010.95 1010.82 1010.64 1010.25 1009.57 1009.70 1009.51 1009.12 1009.08 1009.48 1009.64 1009.22 1008.55 1007.97 1007.64 1007.91 1008.31 1008.64 1008.84 1009.16 1009.42 1009.67 1009.92 1010.22 1010.42 1010.65 1010.86 1011.23 1011.62 1011.85 1012.15 1012.19 1012.35 1012.65 1012.86 1013.11 1013.26 1013.27
1013.59 1013.19 1012.80 1012.06 1011.40 1011.54 1011.58 1011.26 1011.06 1010.95 1011.07 1010.72 1010.80 1010.69 1011.53 1011.68 1011.05 1010.79 1011.09 1010.59 1010.14 1009.42 1008.90 1008.20 1008.24 1008.52 1008.72 1008.87 1009.05 1009.32 1009.63 1009.99 1010.48 1010.91 1011.27 1011.63 1011.99 1012.22 1012.26 1012.37 1012.50 1012.72 1012.88 1013.03
1014.39 1013.70 1013.20 1012.36 1011.59 1011.78 1012.10 1011.45 1011.29 1011.47 1012.23 1013.27 1013.26 1013.42 1013.28 1013.23 1013.36 1013.70 1013.49 1012.64 1012.16 1011.52 1010.67 1009.60 1009.01 1008.27 1007.94 1008.01 1008.20 1008.67 1009.06 1009.50 1010.01 1010.50 1010.89 1011.31 1011.71 1012.02 1012.18 1012.17 1012.27 1012.30 1012.48 1012.73
1014.97 1014.19 1013.51 1012.79 1012.59 1011.97 1011.31 1011.95 1011.03 1012.93 1015.14 1015.64 1015.81 1015.81 1015.88 1015.57 1015.07 1015.66 1015.50 1014.86 1014.21 1013.59 1012.74 1011.75 1010.84 1009.74 1008.91 1008.38 1008.22 1008.16 1008.50 1008.93 1009.45 1009.98 1010.44 1010.80 1011.21 1011.60 1011.85 1012.03 1011.99 1011.98 1012.02 1012.15
1015.37 1014.48 1013.62 1013.24 1012.98 1012.03 1012.66 1013.94 1014.59 1014.95 1017.08 1017.72 1017.60 1017.45 1017.03 1015.66 1014.64 1015.31 1015.88 1015.99 1016.03 1015.53 1014.78 1013.94 1012.81 1011.58 1010.54 1009.77 1009.18 1008.65 1008.54 1008.60 1009.08 1009.59 1010.00 1010.35 1010.78 1011.21 1011.55 1011.77 1011.76 1011.74 1011.86 1011.99
1015.28 1014.97 1014.37 1013.80 1013.61 1013.94 1015.52 1015.79 1015.97 1016.19 1018.11 1018.92 1018.91 1018.64 1018.01 1016.66 1016.16 1017.45 1017.27 1016.99 1016.81 1016.52 1015.90 1015.01 1013.96 1012.91 1012.06 1011.46 1010.46 1009.31 1009.09 1009.04 1009.07 1009.14 1009.39 1009.81 1010.27 1010.75 1011.15 1011.31 1011.47 1011.36 1011.48 1011.64
1016.58 1015.53 1015.02 1014.60 1014.66 1015.69 1016.58 1016.70 1016.18 1017.31 1019.94 1019.85 1019.83 1019.71 1019.39 1019.10 1019.23 1018.84 1018.41 1017.92 1017.70 1017.45 1016.85 1016.07 1015.08 1014.33 1013.85 1013.17 1012.01 1011.05 1010.38 1010.17 1009.84 1009.43 1009.38 1009.61 1009.87 1010.18 1010.49 1010.92 1011.21 1011.25 1011.40 1011.67
1018.99 1018.05 1017.22 1016.63 1016.53 1017.66 1017.56 1017.34 1018.39 1019.76 1020.08 1020.45 1020.43 1020.22 1019.92 1019.76 1019.41 1019.27 1018.98 1018.52 1018.14 1017.74 1017.14 1016.64 1015.99 1015.48 1014.96 1014.41 1013.53 1012.74 1012.10 1011.63 1010.79 1009.99 1009.43 1009.30 1009.47 1009.69 1010.05 1010.56 1010.91 1011.09 1011.22 1011.53
1020.67 1020.02 1019.47 1019.13 1018.81 1018.96 1018.96 1019.29 1019.91 1020.19 1020.34 1020.57 1020.73 1020.53 1020.33 1020.20 1019.97 1019.73 1019.46 1019.09 1018.76 1018.47 1018.05 1017.55 1016.99 1016.30 1015.72 1015.26 1014.74 1014.10 1013.47 1012.57 1011.55 1010.52 1009.63 1009.29 1009.12 1009.21 1009.41 1009.92 1010.35 1010.81 1010.98 1011.18
1021.35 1020.55 1020.17 1019.64 1019.55 1019.55 1019.99 1020.29 1020.12 1020.38 1020.59 1021.04 1021.40 1021.30 1021.12 1020.98 1020.73 1020.36 1020.18 1019.87 1019.40 1019.16 1018.62 1018.07 1017.45 1016.92 1016.35 1015.87 1015.39 1015.02 1014.22 1013.32 1012.35 1011.24 1010.12 1009.35 1009.11 1009.02 1009.09 1009.26 1009.57 1009.96 1010.30 1010.55
1021.68 1020.91 1020.35 1020.00 1019.58 1019.82 1020.11 1020.29 1020.62 1021.00 1021.39 1021.72 1022.06 1022.09 1021.90 1021.85 1021.41 1021.15 1020.99 1020.71 1020.34 1019.96 1019.43 1018.62 1018.07 1017.63 1017.07 1016.57 1015.91 1015.25 1014.51 1013.73 1012.74 1011.81 1010.75 1009.74 1009.19 1008.97 1008.83 1008.76 1008.77 1008.93 1008.85 1008.95
1021.19 1020.57 1020.56 1020.40 1020.31 1020.36 1020.55 1021.07 1021.52 1021.95 1022.42 1022.71 1022.73 1022.57 1022.67 1022.59 1022.38 1022.43 1022.14 1021.84 1021.58 1020.81 1019.78 1019.02 1018.63 1018.25 1017.63 1017.01 1016.39 1015.62 1014.92 1014.22 1013.30 1012.24 1011.35 1010.51 1009.64 1008.97 1008.71 1008.54 1008.34 1008.19 1008.22 1008.32
Wind_Speed
4 4 9 12 10 4 3 3 4 5 2 4 8 15 18 15 11 11 10 9 12 12 9 9 12 12 10 8 8 5 4 3 2 2 1 2 2 3 2 3 1 2 1 2
2 9 8 9 6 7 5 4 5 5 2 4 5 18 22 18 14 9 8 4 8 7 9 11 11 7 8 9 7 6 4 4 3 2 1 3 1 3 3 2 4 4 2 3
7 5 5 9 5 5 4 6 4 7 4 4 7 10 7 6 3 2 2 2 4 9 14 11 11 9 8 8 8 6 4 5 4 2 2 2 1 1 3 2 1 1 2 2
8 9 1 4 4 6 4 4 6 3 4 4 3 9 8 9 9 5 6 4 4 7 7 9 9 8 9 7 7 7 6 6 4 3 1 1 2 1 1 2 1 1 3 2
8 3 6 4 4 8 6 2 4 3 2 3 3 4 12 6 9 5 8 7 6 7 9 9 9 9 7 8 7 6 6 6 5 3 3 0 3 1 1 2 3 1 1 2
5 2 1 5 3 1 7 4 5 4 2 2 6 7 9 5 5 2 2 5 7 7 9 8 7 8 7 7 7 6 7 5 5 4 3 2 4 4 3 3 3 1 2 2
2 3 1 2 6 6 2 6 2 5 3 7 1 4 14 5 7 7 9 9 8 7 9 9 9 8 7 8 7 6 7 6 6 6 4 3 3 5 4 2 3 2 1 2
8 5 10 6 7 8 7 8 7 8 5 4 3 8 11 7 1 1 6 8 7 7 8 9 9 8 8 8 7 7 7 6 6 6 5 3 3 3 2 2 2 2 2 2
7 5 1 4 1 7 6 6 5 4 2 4 6 8 11 2 2 2 6 7 8 8 8 9 8 7 8 8 8 8 7 6 6 6 5 4 3 4 4 2 2 2 1 2
3 3 1 0 0 1 3 2 3 3 2 5 5 5 7 6 6 7 8 9 8 8 8 8 8 8 7 7 7 7 7 7 6 6 5 4 4 3 4 4 3 3 2 2
3 2 2 2 6 8 3 3 4 3 5 5 1 7 6 3 1 7 9 9 8 9 8 8 8 8 8 7 8 8 7 7 7 6 6 6 5 4 4 5 4 3 3 2
2 2 4 8 3 1 1 6 6 6 5 4 3 8 5 4 5 4 6 7 8 7 9 8 8 8 8 8 8 8 7 7 7 7 6 6 5 5 5 5 5 4 4 3
5 4 3 2 4 2 5 6 5 2 3 7 5 6 2 2 6 6 5 5 7 8 8 8 7 9 9 7 7 8 7 7 7 7 7 6 6 6 6 6 6 6 5 4
3 4 5 7 3 4 5 6 12 12 5 3 13 3 4 9 10 9 6 4 3 5 7 7 6 7 7 7 7 7 7 7 8 8 8 8 7 7 6 6 6 6 6 6
1 3 3 10 1 1 5 6 9 18 17 9 5 7 6 14 14 14 12 7 1 4 6 8 8 8 8 8 8 7 8 8 9 9 8 9 7 7 6 6 6 5 6 6
1 3 2 5 8 7 11 8 7 11 12 14 14 17 12 11 13 19 19 17 17 11 9 9 8 8 10 11 10 10 10 9 7 9 9 7 7 6 7 7 7 6 5 5
3 2 1 4 3 6 6 13 16 6 9 6 10 7 17 12 13 16 19 17 18 20 20 15 8 9 10 10 10 10 9 7 8 9 7 8 7 8 8 8 7 8 8 6
3 3 2 2 2 4 4 8 3 13 11 12 9 13 14 13 10 9 16 18 20 21 21 20 17 16 9 5 6 6 7 9 9 9 9 8 9 8 7 7 9 8 6 9
11 3 2 4 4 4 4 9 6 5 8 12 11 13 14 16 6 6 20 17 16 16 16 16 16 15 14 15 12 6 6 7 7 9 9 9 10 9 7 8 8 7 7 6
10 10 3 3 4 5 4 10 6 4 4 10 11 13 16 17 6 7 17 16 16 16 15 17 17 15 17 19 16 7 5 5 7 8 9 8 8 9 10 9 8 5 5 7
3 1 8 8 5 4 8 12 6 6 4 3 7 9 9 7 4 8 13 12 12 13 15 16 15 14 15 17 16 14 9 7 8 4 5 7 7 9 9 7 5 5 6 5
3 3 3 3 2 3 11 4 6 2 3 2 4 5 6 6 7 7 10 12 14 15 15 15 14 13 13 15 14 14 13 14 13 8 6 7 8 7 6 8 6 5 6 6
1 2 1 2 3 3 1 10 7 5 3 3 4 5 6 8 8 10 10 11 11 12 12 12 12 12 12 13 12 13 14 15 15 11 7 6 6 6 7 8 8 6 6 7
5 1 1 2 3 6 7 6 5 3 2 2 4 7 7 8 11 11 11 11 10 10 11 12 12 13 14 13 12 11 13 13 13 13 10 5 5 5 5 5 6 7 8 8
5 1 2 4 1 4 3 2 2 2 3 4 5 6 7 9 11 11 12 13 12 13 13 12 12 13 14 13 12 12 12 13 13 12 11 7 3 4 5 7 7 8 9 11
3 4 3 5 3 2 2 3 3 3 4 5 7 9 8 8 9 10 10 11 12 13 13 12 13 13 14 13 13 12 11 11 11 11 9 8 7 4 4 5 7 10 12 11
Wind_Direction
228 140 203 201 205 209 122 176 230 275 219 249 238 275 281 279 272 271 250 232 224 200 191 140 134 131 121 119 121 124 117 109 94 47 349 299 324 312 300 290 296 63 166 194
90 237 217 211 209 216 247 240 266 278 173 235 274 285 287 283 269 244 249 248 236 154 133 137 136 128 130 135 134 124 119 115 107 100 222 234 224 277 284 300 94 101 221 223
171 238 200 200 190 174 189 190 205 218 321 279 308 295 321 303 274 213 128 102 35 161 144 148 144 139 133 139 143 138 144 128 113 113 267 295 22 309 22 10 86 113 249 200
223 250 309 157 186 148 212 214 196 169 56 246 50 286 298 283 288 234 223 184 142 110 122 145 142 144 147 149 141 141 150 135 125 125 152 23 79 17 310 280 132 118 223 211
233 202 161 170 206 164 224 103 121 134 168 6 313 75 272 300 296 272 218 205 195 151 154 153 155 151 149 143 146 156 153 137 139 146 129 330 87 25 321 354 95 108 65 162
181 163 141 169 61 83 146 75 42 45 91 4 235 150 283 244 228 243 187 188 187 165 156 151 148 137 139 144 145 160 155 159 153 146 143 182 94 50 47 31 49 65 119 155
142 197 132 145 89 7 99 88 336 351 358 223 172 104 243 253 259 214 200 195 190 171 153 155 152 152 153 156 171 171 164 168 160 149 160 173 132 90 71 43 27 43 138 172
159 278 164 190 188 176 183 162 170 204 203 255 45 226 250 231 276 228 180 159 170 168 164 165 164 162 164 171 183 176 169 169 160 158 165 180 157 112 87 79 68 59 27 333
168 241 120 87 80 146 197 203 184 110 42 62 231 277 300 148 170 112 146 157 183 182 178 173 172 173 175 180 188 177 170 171 170 166 165 187 177 137 125 95 91 89 43 51
224 126 5 335 108 72 148 193 105 356 197 251 272 267 238 252 242 210 203 198 193 190 185 182 181 183 187 185 184 178 175 177 180 171 175 187 176 168 140 122 118 123 93 41
197 55 323 87 212 170 165 218 234 147 165 190 260 259 225 258 251 225 216 203 193 191 196 190 185 187 186 185 181 180 177 175 178 180 174 178 186 172 162 138 145 142 116 91
100 78 191 210 269 207 280 209 179 149 220 224 163 268 355 357 9 344 233 206 196 181 191 190 187 185 189 192 186 186 185 182 183 182 174 183 185 171 173 153 156 169 138 125
143 189 132 281 342 352 220 203 225 117 72 213 155 258 292 10 4 325 317 298 202 185 184 191 185 196 199 195 192 191 190 191 181 173 173 182 193 181 179 175 169 163 152 154
182 193 216 191 171 133 194 219 208 205 194 167 231 296 264 33 13 334 321 347 138 179 188 196 201 206 204 203 200 198 200 191 178 177 178 183 195 192 180 176 180 180 167 162
121 238 264 257 215 276 208 225 217 214 219 198 276 222 264 29 21 4 6 354 129 192 206 217 213 211 209 206 206 202 203 195 182 182 185 194 195 191 173 179 184 190 193 166
175 233 200 265 221 205 256 263 233 236 244 264 274 277 35 23 9 14 7 5 355 321 290 246 217 208 214 213 212 206 202 199 180 188 195 184 181 187 188 185 184 187 199 186
221 237 178 262 313 135 256 239 226 201 64 342 253 337 348 5 357 18 1 3 6 5 -0 346 288 237 221 212 202 205 201 174 186 191 186 184 183 192 197 191 186 193 197 185
280 194 206 282 7 230 126 17 326 99 54 27 359 359 350 331 304 51 18 10 4 1 357 353 350 349 334 281 221 201 180 190 194 197 189 184 184 196 194 195 199 196 186 192
220 278 228 248 196 304 40 22 10 25 63 21 11 5 351 325 286 131 16 10 2 356 355 348 345 353 356 3 334 248 204 187 188 201 200 190 187 192 189 201 204 199 184 188
208 219 257 200 246 234 26 326 306 287 100 18 10 7 1 359 52 359 348 358 358 357 357 353 352 359 8 356 345 310 251 212 210 210 207 184 180 189 197 201 201 192 193 199
342 226 225 240 260 72 321 319 291 178 82 8 5 4 359 14 351 325 338 351 360 359 356 356 359 3 360 355 352 360 350 342 313 267 195 193 191 195 198 191 189 192 191 175
345 340 358 327 331 197 331 63 61 61 94 320 304 333 330 324 318 332 337 341 348 351 353 358 358 356 354 358 357 356 357 339 329 312 247 210 203 199 183 184 192 191 177 190
4 126 290 346 357 106 66 127 134 152 220 270 296 332 333 318 327 327 328 333 338 343 342 349 350 346 352 356 357 351 341 337 331 320 287 241 216 198 186 186 190 190 192 194
344 244 280 338 161 195 151 152 164 209 241 22 1 335 335 328 329 326 329 331 335 335 339 342 342 344 342 347 343 343 338 337 332 327 319 274 225 211 196 193 190 194 193 199
212 46 228 284 177 101 75 84 93 34 68 15 0 343 333 332 322 330 327 326 329 324 327 335 336 332 328 331 329 337 337 339 339 332 325 313 258 227 215 215 204 209 215 203
211 217 148 231 214 167 151 125 86 80 35 26 349 328 337 333 332 335 320 324 320 322 328 331 331 324 321 320 318 326 332 336 332 333 331 325 310 264 231 223 239 235 236 219